DAL982 KATL-SKBO

Flight info

Callsign DAL982
Flight time N/A
Altitude 31000
Route VRSTY3 NOKIE DCT YANTI Q89 SHRKS DCT DEBRL Q97 TOVAR Y297 URSUS UP406 PUTUL/N0476F330 UP406 SUDSA DCT AKPEK DCT RNG DCT ISVAT ISVAT5E
Aircraft B739/M-SDE2E3FGHIRWXY/LB1

Departure

Time 2026-05-05 13:36
Airport Hartsfield Jackson Atlanta International Airport (KATL)

Arrival

Time N/A
Airport El Dorado International Airport (SKBO)
Time Latitude Longitude Altitude Speed Heading
2026-05-05 13:14 33.63781 -84.42629 1005 ft 0 kts 89°
2026-05-05 13:27 33.63781 -84.42656 1005 ft 4 kts 89°
2026-05-05 13:27 33.63781 -84.42688 1005 ft 4 kts 100°
2026-05-05 13:28 33.63790 -84.42717 1005 ft 4 kts 129°
2026-05-05 13:28 33.63809 -84.42733 1005 ft 3 kts 177°
2026-05-05 13:28 33.63812 -84.42733 1005 ft 1 kts 180°
2026-05-05 13:30 33.63800 -84.42733 1005 ft 6 kts 180°
2026-05-05 13:30 33.63726 -84.42732 1005 ft 15 kts 180°
2026-05-05 13:30 33.63630 -84.42765 1005 ft 14 kts 181°
2026-05-05 13:31 33.63580 -84.42679 1006 ft 14 kts 93°
2026-05-05 13:31 33.63581 -84.42569 1006 ft 13 kts 89°
2026-05-05 13:31 33.63582 -84.42463 1006 ft 13 kts 89°
2026-05-05 13:31 33.63583 -84.42356 1006 ft 13 kts 89°
2026-05-05 13:32 33.63581 -84.42249 1006 ft 13 kts 91°
2026-05-05 13:32 33.63579 -84.42142 1006 ft 13 kts 90°
2026-05-05 13:32 33.63580 -84.42024 1006 ft 17 kts 89°
2026-05-05 13:32 33.63581 -84.41868 1005 ft 19 kts 89°
2026-05-05 13:33 33.63582 -84.41712 1005 ft 19 kts 89°
2026-05-05 13:33 33.63581 -84.41560 1005 ft 18 kts 91°
2026-05-05 13:33 33.63580 -84.41420 1004 ft 8 kts 90°
2026-05-05 13:33 33.63580 -84.41402 1004 ft 2 kts 89°
2026-05-05 13:34 33.63580 -84.41381 1004 ft 4 kts 89°
2026-05-05 13:34 33.63581 -84.41302 1005 ft 14 kts 89°
2026-05-05 13:34 33.63581 -84.41164 1005 ft 17 kts 90°
2026-05-05 13:34 33.63581 -84.41026 1005 ft 16 kts 90°
2026-05-05 13:35 33.63580 -84.40893 1005 ft 16 kts 91°
2026-05-05 13:35 33.63508 -84.40820 1006 ft 15 kts 180°
2026-05-05 13:35 33.63471 -84.40915 1006 ft 14 kts 270°
2026-05-05 13:35 33.63472 -84.41146 1004 ft 59 kts 270°
2026-05-05 13:36 33.63471 -84.41924 1006 ft 124 kts 270°
2026-05-05 13:36 33.63470 -84.43160 1006 ft 174 kts 269°
2026-05-05 13:36 33.63464 -84.44709 1356 ft 189 kts 269°
2026-05-05 13:36 33.63458 -84.46254 2189 ft 184 kts 267°
2026-05-05 13:37 33.63446 -84.47811 2847 ft 191 kts 266°
2026-05-05 13:37 33.63422 -84.49465 3179 ft 206 kts 265°
2026-05-05 13:37 33.63410 -84.51277 3326 ft 228 kts 266°
2026-05-05 13:37 33.63421 -84.53217 3710 ft 236 kts 267°
2026-05-05 13:38 33.63444 -84.55236 4039 ft 251 kts 267°
2026-05-05 13:38 33.63449 -84.56641 4353 ft 256 kts 267°
2026-05-05 13:38 33.63453 -84.58769 5191 ft 254 kts 267°
2026-05-05 13:38 33.63454 -84.60914 5778 ft 261 kts 267°
2026-05-05 13:39 33.63450 -84.63103 6436 ft 264 kts 265°
2026-05-05 13:39 33.63046 -84.65183 7023 ft 262 kts 239°
2026-05-05 13:39 33.61885 -84.66842 7645 ft 262 kts 217°
2026-05-05 13:39 33.60330 -84.68012 8237 ft 266 kts 210°
2026-05-05 13:40 33.58692 -84.69093 8835 ft 270 kts 204°
2026-05-05 13:40 33.57491 -84.69508 9248 ft 274 kts 188°
2026-05-05 13:40 33.56732 -84.69569 9507 ft 276 kts 179°
2026-05-05 13:40 33.54833 -84.69289 10075 ft 281 kts 172°
2026-05-05 13:41 33.52876 -84.68892 10520 ft 289 kts 172°
2026-05-05 13:41 33.50870 -84.68486 11056 ft 294 kts 173°
2026-05-05 13:41 33.48840 -84.68089 11611 ft 297 kts 173°
2026-05-05 13:41 33.46782 -84.67697 12163 ft 301 kts 173°
2026-05-05 13:42 33.44699 -84.67303 12710 ft 304 kts 173°
2026-05-05 13:42 33.42661 -84.66563 13226 ft 312 kts 151°
2026-05-05 13:42 33.41004 -84.64821 13515 ft 329 kts 126°
2026-05-05 13:42 33.39753 -84.62435 13689 ft 346 kts 121°
2026-05-05 13:43 33.38531 -84.59870 13819 ft 364 kts 120°
2026-05-05 13:43 33.37287 -84.57204 13936 ft 380 kts 120°
2026-05-05 13:43 33.35974 -84.54392 14041 ft 395 kts 120°
2026-05-05 13:43 33.34596 -84.51470 14133 ft 409 kts 120°
2026-05-05 13:44 33.33172 -84.48476 14334 ft 418 kts 121°
2026-05-05 13:44 33.31715 -84.45436 14715 ft 421 kts 121°
2026-05-05 13:44 33.30247 -84.42387 15188 ft 424 kts 121°
2026-05-05 13:44 33.28771 -84.39331 15584 ft 427 kts 121°
2026-05-05 13:45 33.27276 -84.36241 15966 ft 431 kts 121°
2026-05-05 13:45 33.25766 -84.33122 16323 ft 434 kts 121°
2026-05-05 13:45 33.24267 -84.30030 16681 ft 438 kts 121°
2026-05-05 13:45 33.22734 -84.26870 17048 ft 441 kts 121°
2026-05-05 13:46 33.21188 -84.23686 17391 ft 444 kts 121°
2026-05-05 13:46 33.19629 -84.20477 17740 ft 447 kts 121°
2026-05-05 13:46 33.18061 -84.17253 18091 ft 451 kts 121°
2026-05-05 13:46 33.16481 -84.14006 18416 ft 454 kts 121°
2026-05-05 13:47 33.14887 -84.10733 18704 ft 457 kts 121°
2026-05-05 13:47 33.13285 -84.07445 18995 ft 459 kts 121°
2026-05-05 13:47 33.11674 -84.04142 19283 ft 462 kts 121°
2026-05-05 13:47 33.10597 -84.01937 19463 ft 464 kts 121°
2026-05-05 13:48 33.10055 -84.00827 19556 ft 465 kts 121°
2026-05-05 13:48 33.08269 -83.97607 19802 ft 467 kts 133°
2026-05-05 13:48 33.05818 -83.95082 20074 ft 466 kts 147°
2026-05-05 13:48 33.03139 -83.92897 20384 ft 467 kts 148°
2026-05-05 13:49 33.00443 -83.90713 20645 ft 470 kts 148°
2026-05-05 13:49 32.97733 -83.88505 20887 ft 474 kts 148°
2026-05-05 13:49 32.95013 -83.86266 21150 ft 477 kts 147°
2026-05-05 13:49 32.92287 -83.84003 21409 ft 479 kts 147°
2026-05-05 13:50 32.89549 -83.81720 21673 ft 482 kts 147°
2026-05-05 13:50 32.86795 -83.79421 21924 ft 484 kts 147°
2026-05-05 13:50 32.84060 -83.77140 22170 ft 487 kts 147°
2026-05-05 13:50 32.81281 -83.74824 22412 ft 490 kts 147°
2026-05-05 13:51 32.78483 -83.72495 22649 ft 492 kts 147°
2026-05-05 13:51 32.75665 -83.70153 22878 ft 495 kts 147°
2026-05-05 13:51 32.72833 -83.67800 23102 ft 497 kts 147°
2026-05-05 13:51 32.69990 -83.65440 23319 ft 500 kts 147°
2026-05-05 13:52 32.67142 -83.63048 23537 ft 502 kts 146°
2026-05-05 13:52 32.64322 -83.60586 23725 ft 505 kts 145°
2026-05-05 13:52 32.61498 -83.58074 23894 ft 507 kts 145°
2026-05-05 13:52 32.58669 -83.55544 24070 ft 509 kts 145°
2026-05-05 13:53 32.55835 -83.53012 24244 ft 511 kts 145°
2026-05-05 13:53 32.52983 -83.50476 24419 ft 513 kts 145°
2026-05-05 13:53 32.50121 -83.47943 24591 ft 515 kts 145°
2026-05-05 13:53 32.47237 -83.45399 24759 ft 517 kts 145°
2026-05-05 13:54 32.44372 -83.42878 24923 ft 520 kts 145°
2026-05-05 13:54 32.41463 -83.40322 25086 ft 522 kts 145°
2026-05-05 13:54 32.38536 -83.37753 25243 ft 524 kts 145°
2026-05-05 13:54 32.35595 -83.35173 25407 ft 526 kts 145°
2026-05-05 13:55 32.32647 -83.32588 25565 ft 528 kts 145°
2026-05-05 13:55 32.30686 -83.30870 25668 ft 530 kts 145°
2026-05-05 13:55 32.29607 -83.29925 25726 ft 530 kts 145°
2026-05-05 13:55 32.26636 -83.27324 25887 ft 532 kts 145°
2026-05-05 13:56 32.23692 -83.24748 26027 ft 534 kts 145°
2026-05-05 13:56 32.20696 -83.22129 26214 ft 536 kts 146°
2026-05-05 13:56 32.17703 -83.19515 26447 ft 535 kts 146°
2026-05-05 13:56 32.14707 -83.16899 26680 ft 536 kts 146°
2026-05-05 13:57 32.11706 -83.14283 26881 ft 537 kts 146°
2026-05-05 13:57 32.08696 -83.11660 27068 ft 538 kts 146°
2026-05-05 13:57 32.05677 -83.09032 27289 ft 539 kts 146°
2026-05-05 13:57 32.02655 -83.06403 27518 ft 539 kts 146°
2026-05-05 13:58 31.99670 -83.03810 27728 ft 540 kts 146°
2026-05-05 13:58 31.96633 -83.01173 27919 ft 541 kts 146°
2026-05-05 13:58 31.93595 -82.98537 28134 ft 542 kts 146°
2026-05-05 13:58 31.90548 -82.95895 28364 ft 543 kts 146°
2026-05-05 13:59 31.84453 -82.90617 28810 ft 544 kts 146°
2026-05-05 13:59 31.81399 -82.87975 29023 ft 546 kts 146°
2026-05-05 14:00 31.75319 -82.82596 29476 ft 548 kts 143°
2026-05-05 14:00 31.72389 -82.79820 29707 ft 549 kts 142°
2026-05-05 14:00 31.69436 -82.76963 29967 ft 549 kts 142°
2026-05-05 14:00 31.66491 -82.74104 30135 ft 550 kts 142°
2026-05-05 14:01 31.60549 -82.68388 30110 ft 551 kts 142°
2026-05-05 14:01 31.54584 -82.62728 30117 ft 551 kts 142°
2026-05-05 14:02 31.48651 -82.57132 30128 ft 551 kts 142°
2026-05-05 14:02 31.43638 -82.52410 30117 ft 552 kts 142°
2026-05-05 14:03 31.39519 -82.48532 30113 ft 552 kts 142°
2026-05-05 14:03 31.33556 -82.42923 30119 ft 552 kts 142°
2026-05-05 14:04 31.27568 -82.37298 30119 ft 553 kts 142°
2026-05-05 14:04 31.21564 -82.31669 30122 ft 553 kts 142°
2026-05-05 14:05 31.15549 -82.26039 30117 ft 553 kts 142°
2026-05-05 14:05 31.09538 -82.20423 30116 ft 553 kts 142°
2026-05-05 14:06 31.03568 -82.14854 30111 ft 553 kts 142°
2026-05-05 14:06 30.97560 -82.09258 30117 ft 552 kts 142°
2026-05-05 14:07 30.91546 -82.03666 30118 ft 552 kts 143°
2026-05-05 14:07 30.85527 -81.98079 30119 ft 552 kts 143°
2026-05-05 14:08 30.79550 -81.92540 30122 ft 552 kts 143°
2026-05-05 14:08 30.73533 -81.86972 30110 ft 552 kts 143°
2026-05-05 14:09 30.67519 -81.81415 30112 ft 552 kts 143°
2026-05-05 14:09 30.61320 -81.76169 30101 ft 549 kts 153°
2026-05-05 14:10 30.56769 -81.73702 30121 ft 543 kts 162°
2026-05-05 14:10 30.50468 -81.70771 30101 ft 543 kts 162°
2026-05-05 14:11 30.43500 -81.67522 30104 ft 543 kts 162°
2026-05-05 14:11 30.36503 -81.64185 30115 ft 543 kts 161°
2026-05-05 14:12 30.29511 -81.60818 30125 ft 543 kts 161°
2026-05-05 14:12 30.22519 -81.57455 30123 ft 543 kts 161°
2026-05-05 14:13 30.15579 -81.54128 30119 ft 543 kts 161°
2026-05-05 14:13 30.08589 -81.50785 30116 ft 543 kts 161°
2026-05-05 14:14 30.01597 -81.47446 30125 ft 543 kts 161°
2026-05-05 14:14 29.94611 -81.44115 30128 ft 543 kts 161°
2026-05-05 14:15 29.87614 -81.40784 30120 ft 543 kts 161°
2026-05-05 14:15 29.80631 -81.37465 30122 ft 542 kts 161°
2026-05-05 14:16 29.73688 -81.34169 30121 ft 542 kts 161°
2026-05-05 14:16 29.66721 -81.30867 30106 ft 541 kts 161°
2026-05-05 14:17 29.59752 -81.27569 30099 ft 541 kts 161°
2026-05-05 14:17 29.55137 -81.25387 30100 ft 540 kts 161°
2026-05-05 14:18 29.49301 -81.22632 30096 ft 540 kts 161°
2026-05-05 14:18 29.42330 -81.19345 30099 ft 540 kts 161°
2026-05-05 14:19 29.35416 -81.16089 30103 ft 540 kts 161°
2026-05-05 14:19 29.28455 -81.12822 30103 ft 539 kts 162°
2026-05-05 14:20 29.21449 -81.09697 30105 ft 538 kts 163°
2026-05-05 14:20 29.14492 -81.06668 30098 ft 538 kts 163°
2026-05-05 14:21 29.07487 -81.03602 30087 ft 537 kts 163°
2026-05-05 14:21 29.00497 -81.00526 30099 ft 537 kts 163°
2026-05-05 14:22 28.93526 -80.97459 30092 ft 536 kts 163°
2026-05-05 14:22 28.86577 -80.94408 30101 ft 535 kts 163°
2026-05-05 14:23 28.79632 -80.91365 30094 ft 533 kts 163°
2026-05-05 14:23 28.72707 -80.88334 30081 ft 532 kts 163°
2026-05-05 14:24 28.65830 -80.85390 30070 ft 530 kts 165°
2026-05-05 14:24 28.58847 -80.82724 30101 ft 528 kts 167°
2026-05-05 14:25 28.54175 -80.80990 30095 ft 527 kts 167°
2026-05-05 14:25 28.48225 -80.78756 30122 ft 529 kts 166°
2026-05-05 14:26 28.44728 -80.77429 30307 ft 529 kts 166°
2026-05-05 14:26 28.41241 -80.76097 30571 ft 528 kts 166°
2026-05-05 14:26 28.37759 -80.74764 30814 ft 527 kts 166°
2026-05-05 14:26 28.34285 -80.73434 30996 ft 528 kts 166°
2026-05-05 14:27 28.30800 -80.72102 31190 ft 528 kts 166°
2026-05-05 14:27 28.27308 -80.70770 31391 ft 529 kts 166°
2026-05-05 14:27 28.23820 -80.69440 31604 ft 529 kts 166°
2026-05-05 14:27 28.20334 -80.68113 31817 ft 529 kts 166°
2026-05-05 14:28 28.18022 -80.67233 31954 ft 529 kts 166°
2026-05-05 14:28 28.14525 -80.65903 32156 ft 530 kts 166°
2026-05-05 14:28 28.11032 -80.64576 32322 ft 531 kts 166°
2026-05-05 14:28 28.07517 -80.63241 32496 ft 531 kts 166°
2026-05-05 14:29 28.04009 -80.61910 32701 ft 531 kts 166°
2026-05-05 14:29 28.00500 -80.60578 32911 ft 531 kts 166°
2026-05-05 14:29 27.97003 -80.59252 33063 ft 529 kts 166°
2026-05-05 14:29 27.93502 -80.57925 33067 ft 531 kts 166°
2026-05-05 14:30 27.86517 -80.55283 33088 ft 532 kts 166°
2026-05-05 14:30 27.79497 -80.52629 33087 ft 532 kts 166°
2026-05-05 14:31 27.72485 -80.49982 33090 ft 531 kts 166°
2026-05-05 14:31 27.65476 -80.47246 33090 ft 532 kts 165°
2026-05-05 14:32 27.58549 -80.44476 33089 ft 531 kts 165°
2026-05-05 14:32 27.52706 -80.42146 33071 ft 531 kts 165°
2026-05-05 14:33 27.47810 -80.40205 33074 ft 530 kts 165°
2026-05-05 14:33 27.40882 -80.37470 33072 ft 530 kts 165°
2026-05-05 14:34 27.33914 -80.34725 33070 ft 529 kts 165°
2026-05-05 14:34 27.26956 -80.31986 33076 ft 529 kts 165°
2026-05-05 14:35 27.20040 -80.29268 33047 ft 530 kts 165°
2026-05-05 14:35 27.13071 -80.26530 33054 ft 530 kts 165°
2026-05-05 14:36 27.06120 -80.23804 33061 ft 529 kts 165°
2026-05-05 14:36 26.99158 -80.21077 33061 ft 529 kts 165°
2026-05-05 14:37 26.92217 -80.18362 33064 ft 528 kts 165°
2026-05-05 14:37 26.85278 -80.15651 33060 ft 528 kts 165°
2026-05-05 14:38 26.78383 -80.12961 33061 ft 528 kts 165°
2026-05-05 14:38 26.71436 -80.10254 33061 ft 529 kts 165°
2026-05-05 14:39 26.64462 -80.07540 33056 ft 530 kts 165°
2026-05-05 14:39 26.57487 -80.04828 33069 ft 530 kts 165°
2026-05-05 14:40 26.52871 -80.03035 33064 ft 530 kts 165°
2026-05-05 14:40 26.46973 -80.00744 33048 ft 530 kts 165°
2026-05-05 14:41 26.39993 -79.98034 33056 ft 531 kts 165°
2026-05-05 14:41 26.33008 -79.95324 33058 ft 532 kts 165°
2026-05-05 14:42 26.26009 -79.92613 33051 ft 532 kts 165°
2026-05-05 14:42 26.19007 -79.89903 33046 ft 532 kts 165°
2026-05-05 14:43 26.12009 -79.87199 33052 ft 532 kts 165°
2026-05-05 14:43 26.05013 -79.84499 33046 ft 532 kts 165°
2026-05-05 14:44 25.98064 -79.81820 33053 ft 531 kts 165°
2026-05-05 14:44 25.91074 -79.79130 33051 ft 531 kts 165°
2026-05-05 14:45 25.84084 -79.76460 33052 ft 531 kts 165°
2026-05-05 14:45 25.77096 -79.73798 33048 ft 530 kts 165°
2026-05-05 14:46 25.70107 -79.71135 33043 ft 530 kts 165°
2026-05-05 14:46 25.63173 -79.68496 33043 ft 530 kts 165°
2026-05-05 14:47 25.56186 -79.65831 33039 ft 529 kts 165°
2026-05-05 14:47 25.51570 -79.64069 33041 ft 529 kts 165°
2026-05-05 14:48 25.45523 -79.61762 33051 ft 529 kts 165°
2026-05-05 14:48 25.38560 -79.59110 33043 ft 529 kts 165°
2026-05-05 14:49 25.31645 -79.56480 33042 ft 529 kts 165°
2026-05-05 14:49 25.24674 -79.53832 33042 ft 528 kts 165°
2026-05-05 14:50 25.17712 -79.51191 33042 ft 528 kts 165°
2026-05-05 14:50 25.10750 -79.48553 33045 ft 528 kts 165°
2026-05-05 14:51 25.03839 -79.45937 33040 ft 528 kts 165°
2026-05-05 14:51 24.96872 -79.43303 33039 ft 528 kts 165°
2026-05-05 14:52 24.89919 -79.40678 33041 ft 528 kts 165°
2026-05-05 14:52 24.82971 -79.38058 33045 ft 528 kts 165°
2026-05-05 14:53 24.76023 -79.35440 33043 ft 528 kts 165°
2026-05-05 14:53 24.69069 -79.32824 33040 ft 528 kts 165°
2026-05-05 14:54 24.62155 -79.30226 33041 ft 528 kts 164°
2026-05-05 14:54 24.55204 -79.27617 33044 ft 528 kts 164°
2026-05-05 14:55 24.50555 -79.25873 33041 ft 528 kts 164°
2026-05-05 14:55 24.44328 -79.23540 33043 ft 527 kts 164°
2026-05-05 14:56 24.37377 -79.20939 33046 ft 527 kts 164°
2026-05-05 14:56 24.30423 -79.18339 33045 ft 527 kts 164°
2026-05-05 14:57 24.23531 -79.15766 33047 ft 527 kts 164°
2026-05-05 14:57 24.16588 -79.13177 33047 ft 527 kts 164°
2026-05-05 14:58 24.09646 -79.10590 33049 ft 526 kts 164°
2026-05-05 14:58 24.02704 -79.08006 33049 ft 526 kts 164°
2026-05-05 14:59 23.95663 -79.05980 33059 ft 521 kts 174°
2026-05-05 14:59 23.88565 -79.04638 33047 ft 520 kts 174°
2026-05-05 15:00 23.82615 -79.03533 33053 ft 521 kts 174°
2026-05-05 15:00 23.74264 -79.01914 33055 ft 521 kts 174°
2026-05-05 15:01 23.67158 -79.00506 33049 ft 521 kts 174°
2026-05-05 15:01 23.60024 -78.99092 33053 ft 521 kts 174°
2026-05-05 15:02 23.52875 -78.97681 33059 ft 521 kts 174°
2026-05-05 15:02 23.48150 -78.96750 33054 ft 521 kts 174°
2026-05-05 15:03 23.42123 -78.95564 33055 ft 521 kts 174°
2026-05-05 15:03 23.34990 -78.94161 33056 ft 520 kts 174°
2026-05-05 15:04 23.27859 -78.92760 33060 ft 520 kts 174°
2026-05-05 15:04 23.20739 -78.91363 33056 ft 519 kts 174°
2026-05-05 15:05 23.10075 -78.89270 33059 ft 518 kts 173°
2026-05-05 15:06 23.03015 -78.87884 33063 ft 517 kts 173°
2026-05-05 15:06 22.95926 -78.86493 33065 ft 517 kts 173°
2026-05-05 15:07 22.88846 -78.85107 33050 ft 516 kts 173°
2026-05-05 15:07 22.81768 -78.83722 33063 ft 516 kts 173°
2026-05-05 15:08 22.74704 -78.82341 33056 ft 515 kts 173°
2026-05-05 15:08 22.67693 -78.80972 33059 ft 515 kts 173°
2026-05-05 15:09 22.60633 -78.79594 33065 ft 515 kts 173°
2026-05-05 15:09 22.53574 -78.78220 33063 ft 515 kts 173°
2026-05-05 15:10 22.46517 -78.76848 33057 ft 514 kts 173°
2026-05-05 15:10 22.42842 -78.76135 33060 ft 514 kts 173°
2026-05-05 15:11 22.35795 -78.74767 33057 ft 515 kts 173°
2026-05-05 15:11 22.28748 -78.73400 33068 ft 515 kts 173°
2026-05-05 15:12 22.21686 -78.72031 33072 ft 515 kts 173°
2026-05-05 15:12 22.14629 -78.70665 33069 ft 515 kts 173°
2026-05-05 15:13 22.07561 -78.69298 33062 ft 515 kts 173°
2026-05-05 15:13 22.00539 -78.67942 33068 ft 515 kts 173°
2026-05-05 15:14 21.93476 -78.66579 33065 ft 515 kts 173°
2026-05-05 15:14 21.86415 -78.65217 33071 ft 515 kts 173°
2026-05-05 15:15 21.79397 -78.63865 33067 ft 515 kts 173°
2026-05-05 15:15 21.72341 -78.62508 33068 ft 514 kts 173°
2026-05-05 15:16 21.65294 -78.61153 33066 ft 514 kts 173°
2026-05-05 15:16 21.59429 -78.60027 33070 ft 514 kts 173°
2026-05-05 15:17 21.52380 -78.58674 33068 ft 513 kts 173°
2026-05-05 15:17 21.45348 -78.57326 33066 ft 513 kts 172°
2026-05-05 15:18 21.41809 -78.56648 33070 ft 512 kts 172°
2026-05-05 15:18 21.34833 -78.55313 33070 ft 512 kts 172°
2026-05-05 15:19 21.27817 -78.53972 33064 ft 511 kts 172°
2026-05-05 15:19 21.20823 -78.52636 33064 ft 510 kts 172°
2026-05-05 15:20 21.13821 -78.51299 33063 ft 510 kts 172°
2026-05-05 15:20 21.06891 -78.49978 33059 ft 509 kts 172°
2026-05-05 15:21 20.99920 -78.48650 33066 ft 509 kts 172°
2026-05-05 15:21 20.92953 -78.47324 33065 ft 508 kts 172°
2026-05-05 15:22 20.85994 -78.46001 33056 ft 508 kts 172°
2026-05-05 15:22 20.79037 -78.44680 33066 ft 507 kts 172°
2026-05-05 15:23 20.72089 -78.43361 33063 ft 507 kts 172°
2026-05-05 15:23 20.65140 -78.42044 33067 ft 507 kts 172°
2026-05-05 15:24 20.58194 -78.40728 33064 ft 506 kts 172°
2026-05-05 15:24 20.51254 -78.39415 33058 ft 506 kts 172°
2026-05-05 15:25 20.44311 -78.38102 33062 ft 506 kts 172°
2026-05-05 15:25 20.40687 -78.37418 33063 ft 506 kts 172°
2026-05-05 15:26 20.33740 -78.36106 33060 ft 506 kts 172°
2026-05-05 15:26 20.26801 -78.34797 33060 ft 506 kts 172°
2026-05-05 15:27 20.19869 -78.33490 33059 ft 506 kts 172°
2026-05-05 15:27 20.12980 -78.32193 33062 ft 505 kts 172°
2026-05-05 15:28 20.06051 -78.30889 33057 ft 505 kts 172°
2026-05-05 15:28 19.99118 -78.29586 33064 ft 505 kts 172°
2026-05-05 15:29 19.92216 -78.28170 33060 ft 505 kts 170°
2026-05-05 15:29 19.85355 -78.26552 33061 ft 505 kts 169°
2026-05-05 15:30 19.78543 -78.24933 33061 ft 504 kts 169°
2026-05-05 15:30 19.71694 -78.23338 33059 ft 504 kts 170°
2026-05-05 15:31 19.64832 -78.21762 33059 ft 503 kts 170°
2026-05-05 15:31 19.57973 -78.20191 33056 ft 503 kts 170°
2026-05-05 15:32 19.51131 -78.18625 33059 ft 502 kts 170°
2026-05-05 15:32 19.44348 -78.17072 33055 ft 502 kts 170°
2026-05-05 15:33 19.40531 -78.16199 33055 ft 502 kts 170°
2026-05-05 15:33 19.33706 -78.14638 33056 ft 501 kts 170°
2026-05-05 15:34 19.26889 -78.13080 33057 ft 501 kts 170°
2026-05-05 15:34 19.20073 -78.11524 33055 ft 500 kts 170°
2026-05-05 15:35 19.13267 -78.09971 33055 ft 500 kts 169°
2026-05-05 15:35 19.06460 -78.08420 33052 ft 500 kts 170°
2026-05-05 15:36 18.99661 -78.06871 33053 ft 500 kts 169°
2026-05-05 15:36 18.92894 -78.05332 33054 ft 500 kts 169°
2026-05-05 15:37 18.86091 -78.03785 33053 ft 500 kts 169°
2026-05-05 15:37 18.79281 -78.02238 33051 ft 500 kts 169°
2026-05-05 15:38 18.72480 -78.00694 33053 ft 500 kts 169°
2026-05-05 15:38 18.65683 -77.99153 33051 ft 500 kts 169°
2026-05-05 15:39 18.58883 -77.97612 33051 ft 500 kts 169°
2026-05-05 15:39 18.52117 -77.96080 33050 ft 500 kts 169°
2026-05-05 15:40 18.45314 -77.94541 33051 ft 500 kts 169°
2026-05-05 15:40 18.41542 -77.93688 33050 ft 500 kts 169°
2026-05-05 15:41 18.34735 -77.92150 33054 ft 501 kts 169°
2026-05-05 15:41 18.27914 -77.90610 33048 ft 501 kts 169°
2026-05-05 15:42 18.21127 -77.89079 33049 ft 501 kts 169°
2026-05-05 15:42 18.14310 -77.87543 33058 ft 500 kts 169°
2026-05-05 15:43 18.07496 -77.86008 33055 ft 500 kts 169°
2026-05-05 15:43 18.00680 -77.84474 33051 ft 500 kts 169°
2026-05-05 15:44 17.93925 -77.82955 33057 ft 499 kts 169°
2026-05-05 15:44 17.87133 -77.81429 33046 ft 499 kts 169°
2026-05-05 15:45 17.80344 -77.79905 33053 ft 498 kts 169°
2026-05-05 15:45 17.73556 -77.78382 33050 ft 498 kts 169°
2026-05-05 15:46 17.66779 -77.76863 33051 ft 497 kts 169°
2026-05-05 15:46 17.60053 -77.75356 33049 ft 497 kts 169°
2026-05-05 15:47 17.53272 -77.73838 33044 ft 497 kts 169°
2026-05-05 15:47 17.46504 -77.72325 33045 ft 497 kts 169°
2026-05-05 15:48 17.42732 -77.71482 33048 ft 497 kts 169°
2026-05-05 15:48 17.36002 -77.69978 33046 ft 497 kts 169°
2026-05-05 15:49 17.29227 -77.68466 33046 ft 497 kts 169°
2026-05-05 15:49 17.22456 -77.66955 33045 ft 497 kts 169°
2026-05-05 15:50 17.15685 -77.65446 33046 ft 497 kts 169°
2026-05-05 15:50 17.08922 -77.63940 33042 ft 496 kts 169°
2026-05-05 15:51 17.02206 -77.62445 33043 ft 496 kts 169°
2026-05-05 15:51 16.95459 -77.60945 33039 ft 495 kts 169°
2026-05-05 15:52 16.88726 -77.59448 33039 ft 495 kts 169°
2026-05-05 15:52 16.81993 -77.57953 33039 ft 494 kts 169°
2026-05-05 15:53 16.75275 -77.56462 33038 ft 493 kts 169°
2026-05-05 15:53 16.68566 -77.54975 33039 ft 492 kts 169°
2026-05-05 15:54 16.61860 -77.53489 33121 ft 493 kts 169°
2026-05-05 15:54 16.58546 -77.52755 33413 ft 490 kts 169°
2026-05-05 15:54 16.55220 -77.52018 33782 ft 486 kts 170°
2026-05-05 15:54 16.51924 -77.51288 34124 ft 483 kts 170°
2026-05-05 15:55 16.48628 -77.50558 34302 ft 483 kts 170°
2026-05-05 15:55 16.44993 -77.49755 34431 ft 484 kts 170°
2026-05-05 15:56 16.38372 -77.48293 34662 ft 486 kts 170°
2026-05-05 15:56 16.35062 -77.47561 34848 ft 485 kts 170°
2026-05-05 15:56 16.31809 -77.46842 35018 ft 483 kts 171°
2026-05-05 15:57 16.25197 -77.45383 35029 ft 485 kts 171°
2026-05-05 15:57 16.18584 -77.43924 35028 ft 484 kts 171°
2026-05-05 15:58 16.12043 -77.42482 35030 ft 483 kts 171°
2026-05-05 15:58 16.05466 -77.41033 35028 ft 482 kts 171°
2026-05-05 15:59 15.98904 -77.39588 35026 ft 482 kts 171°
2026-05-05 15:59 15.92337 -77.38206 35023 ft 481 kts 172°
2026-05-05 16:00 15.85750 -77.36912 35022 ft 481 kts 172°